FW8055 Weather Reports


time (UTC)temp
F
wind
direction
speed
knots
gust
knots
rain 1hr
in
rain 24hr
in
rain mn
in
humidity
%
barometer
mb
20260906023115 66 0 0.0 2.6 0.00 0.06 0.00 65 1015.3
20260906021554 67 0 0.0 4.3 0.00 0.06 0.00 63 1015.4
20260906020101 68 346 0.9 4.3 0.00 0.06 0.00 60 1015.4
20260906014623 68 344 0.0 2.6 0.00 0.07 0.00 59 1015.3
20260906013057 68 0 0.0 0.0 0.00 0.07 0.00 60 1015.3
20260906011556 68 0 0.0 1.7 0.00 0.07 0.00 57 1015.1
20260906010051 69 0 0.0 3.5 0.00 0.07 0.00 53 1015.1
20260906004611 69 36 0.0 2.6 0.00 0.13 0.00 54 1015.1
20260906003058 69 0 0.0 2.6 0.00 0.13 0.00 56 1015.2
20260906001555 70 0 0.0 2.6 0.00 0.13 0.00 53 1015.2
20260906000059 69 352 0.0 3.5 0.00 0.13 0.00 54 1015.1
20260905234601 69 59 0.9 3.5 0.00 0.18 0.00 54 1015.1
20260905233057 70 0 0.0 3.5 0.00 0.18 0.00 53 1015.2
20260905231556 70 351 0.0 4.3 0.00 0.18 0.00 54 1015.4
20260905230108 69 0 0.9 3.5 0.00 0.18 0.00 55 1015.6
20260905224605 68 247 0.0 1.7 0.00 0.28 0.00 58 1015.7
20260905223055 68 0 0.0 3.5 0.00 0.28 0.00 57 1015.9
20260905221603 68 0 0.0 1.7 0.00 0.28 0.00 58 1016.0
20260905220109 69 0 0.9 5.2 0.00 0.28 0.00 57 1015.9
20260905214557 69 0 0.9 4.3 0.00 0.34 0.00 55 1016.0
20260905213052 69 0 0.0 2.6 0.00 0.34 0.00 58 1016.2
20260905211556 69 29 0.0 3.5 0.00 0.34 0.00 59 1016.4
20260905210052 69 0 0.0 3.5 0.00 0.34 0.00 59 1016.5
20260905204550 67 0 0.0 2.6 0.00 0.34 0.00 63 1016.7
20260905203100 66 0 0.9 2.6 0.00 0.34 0.00 66 1016.6
20260905201556 66 27 0.0 1.7 0.00 0.34 0.00 68 1016.6
20260905200057 65 0 0.0 2.6 0.00 0.34 0.00 67 1016.7
20260905194549 65 0 0.9 2.6 0.00 0.34 0.00 70 1017.1
20260905193056 64 236 0.9 2.6 0.00 0.34 0.00 75 1017.3
20260905191552 63 0 0.0 0.0 0.00 0.34 0.00 74 1017.3
20260905190101 63 0 0.0 2.6 0.00 0.34 0.00 74 1017.3
20260905184600 63 17 0.0 1.7 0.00 0.34 0.00 75 1017.4
20260905183112 62 352 0.0 2.6 0.00 0.34 0.00 77 1017.5
20260905181603 62 0 0.0 2.6 0.00 0.34 0.00 82 1017.5
20260905180052 61 0 0.0 1.7 0.00 0.34 0.00 85 1017.5
20260905174556 59 0 0.0 0.0 0.00 0.35 0.00 89 1017.6
20260905173103 58 0 0.0 1.7 0.00 0.35 0.00 91 1017.6
20260905171556 56 341 0.0 0.9 0.00 0.35 0.00 92 1017.6
20260905164605 55 0 0.0 2.6 0.00 0.38 0.00 95 1017.5
20260905163055 55 0 0.0 1.7 0.00 0.38 0.00 96 1017.4
20260905161602 54 0 0.0 0.9 0.00 0.38 0.00 96 1017.4
20260905160116 54 0 0.0 0.9 0.00 0.38 0.00 96 1017.5
20260905154554 53 0 0.0 1.7 0.00 0.38 0.00 96 1017.7
20260905153111 52 0 0.0 1.7 0.00 0.38 0.00 96 1017.8
20260905151604 52 0 0.0 0.0 0.00 0.38 0.00 96 1017.9
20260905150058 52 0 0.0 0.0 0.00 0.38 0.00 96 1017.9
20260905144602 51 0 0.0 1.7 0.00 0.38 0.00 96 1017.8
20260905143052 51 0 0.0 1.7 0.00 0.38 0.00 95 1017.7
20260905141603 51 0 0.0 0.0 0.00 0.38 0.00 96 1017.6
20260905140107 52 0 0.0 0.9 0.00 0.38 0.00 96 1017.5
20260905134553 52 0 0.0 0.0 0.00 0.38 0.00 96 1017.4
20260905133051 52 0 0.0 0.0 0.00 0.38 0.00 96 1017.5
20260905131609 52 0 0.0 0.0 0.00 0.38 0.00 95 1017.4
20260905130058 52 0 0.0 0.0 0.00 0.38 0.00 95 1017.3
20260905124553 53 0 0.0 0.0 0.00 0.38 0.00 95 1017.1
20260905123104 53 0 0.0 0.0 0.00 0.38 0.00 96 1017.1
20260905121555 53 0 0.0 0.0 0.00 0.38 0.00 96 1017.0
20260905114558 53 0 0.0 0.0 0.00 0.38 0.00 96 1017.1
20260905113053 53 0 0.0 2.6 0.00 0.38 0.00 96 1017.0
20260905111608 53 0 0.0 2.6 0.00 0.38 0.00 96 1016.8
20260905110056 53 0 0.0 2.6 0.00 0.38 0.00 96 1016.9
20260905104559 53 0 0.0 1.7 0.00 0.39 0.00 96 1016.9
20260905103054 53 0 0.0 1.7 0.00 0.39 0.00 96 1017.0
20260905101553 54 0 0.0 0.9 0.00 0.39 0.00 96 1017.1
20260905100101 54 0 0.0 1.7 0.00 0.39 0.00 96 1017.1
20260905094554 54 0 0.0 1.7 0.00 0.40 0.00 96 1017.0
20260905093055 54 0 0.0 0.0 0.00 0.40 0.00 96 1017.1
20260905091609 53 0 0.0 0.0 0.00 0.40 0.00 96 1017.1
20260905090049 54 0 0.0 0.0 0.00 0.40 0.00 96 1016.9
20260905084610 54 0 0.0 0.0 0.00 0.43 0.00 96 1017.0
20260905083054 53 0 0.0 0.0 0.00 0.43 0.00 95 1016.9
20260905081603 53 0 0.0 0.0 0.00 0.43 0.00 95 1016.7
20260905080054 53 0 0.0 0.0 0.00 0.43 0.00 95 1016.7
20260905074557 54 0 0.0 0.0 0.00 0.48 0.00 95 1016.7
20260905073106 54 0 0.0 0.0 0.00 0.48 0.00 95 1016.7
20260905071603 55 0 0.0 0.0 0.00 0.48 0.00 95 1016.4
20260905070055 55 0 0.0 0.0 0.00 0.48 0.00 95 1016.4
20260905064553 55 0 0.0 0.0 0.00 0.48 0.48 95 1016.4
20260905063100 56 0 0.0 0.0 0.00 0.48 0.48 95 1016.4
20260905061611 56 0 0.0 0.0 0.00 0.48 0.48 95 1016.4
20260905060104 56 0 0.0 0.0 0.00 0.48 0.48 95 1016.5
20260905054551 56 0 0.0 0.0 0.00 0.49 0.48 95 1016.4
20260905053140 56 0 0.0 0.0 0.00 0.49 0.48 95 1016.3
20260905051557 56 0 0.0 1.7 0.00 0.49 0.48 95 1016.4
20260905050053 56 0 0.0 0.0 0.00 0.49 0.48 95 1016.4
20260905044554 56 0 0.0 0.0 0.00 0.50 0.48 95 1016.3
20260905043058 56 0 0.0 0.0 0.01 0.50 0.48 95 1016.3
20260905041555 56 0 0.0 0.0 0.02 0.50 0.48 95 1016.1
20260905040106 56 0 0.0 0.0 0.04 0.50 0.48 95 1016.0
20260905034558 56 0 0.0 0.0 0.06 0.50 0.48 94 1016.0
20260905033106 57 0 0.0 0.0 0.05 0.49 0.47 95 1015.8
20260905031604 57 0 0.0 0.0 0.04 0.48 0.46 94 1015.7
20260905030101 57 0 0.0 0.0 0.02 0.46 0.44 94 1015.6
20260905024607 57 0 0.0 2.6 0.00 0.44 0.42 94 1015.5